Location: Berlin
(42.3812°N, 71.6370°W)
Time: 05:43:37
(UTC+00:00)

Cosmos 1455 Rocket - Pass Details

Date: 15 November 2025
Orbit: 599 x 621 km, 82.5° (Epoch: 09 December)

Event Time Altitude Azimuth Distance (km) Brightness Sun altitude
Rises 10:52:18 0° 356° (N) 2,868 6.3 -8.7°
Reaches altitude 10° 10:54:33 10° 1° (N) 1,963 5.5 -8.3°
Maximum altitude 10:58:49 55° 79° (E) 734 3.8 -7.5°
Drops below altitude 10° 11:03:05 10° 158° (SSE) 1,962 6.3 -6.8°
Sets 11:05:20 0° 163° (SSE) 2,865 7.0 -6.4°
